星链-34796 (STARLINK-34796)

导读

STARLINK-34782是美国星链计划的一颗卫星,于北京时间2025年8月28日发射。星链计划旨在构建全球卫星互联网星座,为全球范围内提供高速互联网服务,尤其覆盖偏远地区。该卫星加入星链星座后,将进一步扩容星座网络容量,提升系统服务的稳定性与覆盖能力,推动全球互联基础设施建设。

基本信息
目录编号:
65358
目录名称:
STARLINK-34782
国际标识:
2025-190H
轨道中心:
EARTH
卫星名称:
星链-34796
卫星全名:
星链-34796 (STARLINK-34796)
卫星状态:
在轨 (已飞行372 天)
发射日期:
2025-08-28 UTC
国别 :
美国 (US)
星等 :
--
轨道信息
数据来源 国际轨道数据 AOE轨道数据
星历时间 2026-09-04T04:40:00+0800
10小时前
查看轨道信息
2026-09-01T11:00:00+0800
3天前
查看轨道信息
半长轴 6840.845km 6840.713km
偏心率 0.0000838 0.0002707
轨道倾角 53.161° 53.159°
近地点辐角 138.508° 152.900°
升交点赤经 59.204° 71.986°
平近点角 221.598° 205.044°
近地点 462.134km 460.724km
远地点 463.282km 464.428km
周期 93.848分钟 93.845分钟
每日圈数 15.343986 15.344431
详细信息
固有亮度:
5
最大亮度:
2.5
卫星平台:
Starlink V1.0
覆盖范围:
全球
运营商:
太空探索技术公司
运营商所在国:
美国
制造商(研发单位):
太空探索技术公司
制造商所在国:
美国
使用方式:
暂无
卫星简介
Starlink 计划是 SpaceX 推出的全球卫星互联网项目,通过发射低轨道卫星,为全球尤其是偏远地区提供高速、低延迟的互联网服务。自 2019 年起,Starlink 已部署数千颗卫星,旨在缩小全球数字鸿沟,推动互联网普及。该项目还为军事、航空等行业提供通信支持,带来广泛经济效益。
2D轨道图
3D轨道图
轨道高度分析图
轨道倾角分析图
轨道综合分析图
查看轨道综合分析图
交会数据列表
事件ID 空间交会对象 最接近时刻(TCA) 交会距离 交会风险概率(CRP) 交会风险指数(CRI) 操作
CDM_260906-070202-054706-535821
USA 55 (20547)
2026-09-06T
07:02:17+0000
1.361 km
极远距离
8.923263E-6 低风险 0.54
CDM_260904-220806-223206-535821
2026-09-04T
22:08:14+0000
2.026 km
极远距离
1.487804E-6 低风险 0.38